Weather History for Pompano Beach, FL

Change the Weather History Date:

Friday, February 15, 2013

  Actual Average Record
Temperature  
Mean Temperature 68 °F -  
Max Temperature 72 °F 78 °F 85 °F (1993)
Min Temperature 64 °F 58 °F 39 °F (1960)
Cooling Degree Days 3    
Growing Degree Days 18 (Base 50)    
Moisture  
Dew Point 66 °F    
Average Humidity 98    
Maximum Humidity 100    
Minimum Humidity 81    
Precipitation  
Precipitation 0.96 in - - ()
Sea Level Pressure  
Sea Level Pressure 29.98 in    
Wind  
Wind Speed 6 mph (NNE)    
Max Wind Speed 12 mph    
Max Gust Speed -    
Visibility 7 miles    
Events Rain    
Averages and records for this station are not official NWS values.
T = Trace of Precipitation, MM = Missing Value Source: NWS Daily Summary

Daily Weather History Graph

Daily Weather History Graph

Search for Another Location

Airport:

Trip Planner

Search our weather history database for the weather conditions in past years. The results will help you decide how hot, cold, wet, or windy it might be!

Date:

Astronomy

Feb. 15, 2013 Rise Set
Actual Time 6:55 AM EST 6:13 PM EST
Civil Twilight 6:32 AM EST 6:37 PM EST
Nautical Twilight 6:05 AM EST 7:04 PM EST
Astronomical Twilight 5:38 AM EST 7:31 PM EST
Moon 10:08 AM EST (2/15) 11:32 PM EST (2/15)
Length of Visible Light 12h 04m
Length of Day
11h 17m
Waxing Crescent, 30% of the Moon is Illuminated
Feb 15
Waxing Crescent
Feb 17
First Quarter
Feb 25
Full
Mar 4
Last Quarter
Mar 11
New

Hourly Weather History & Observations

Time (EST) Temp. Dew Point Humidity Pressure Visibility Wind Dir Wind Speed Gust Speed Precip Events Conditions
12:03 AM 64.4 °F 64.4 °F 100% 30.01 in 10.0 mi North 3.5 mph - 0.00 in Rain Light Rain
12:43 AM 64.4 °F 64.4 °F 100% 30.00 in 6.0 mi North 4.6 mph - 0.04 in Rain Light Rain
12:53 AM 64.0 °F 64.0 °F 100% 30.00 in 7.0 mi NNW 6.9 mph - 0.04 in Rain Light Rain
1:02 AM 64.4 °F 64.4 °F 100% 29.99 in 6.0 mi NNE 5.8 mph - 0.00 in Rain Light Rain
1:53 AM 64.0 °F 64.0 °F 100% 29.99 in 2.5 mi West 4.6 mph - 0.05 in Rain Heavy Rain
2:03 AM 64.4 °F 64.4 °F 100% 29.98 in 2.5 mi Calm Calm - 0.07 in Rain Heavy Rain
2:24 AM 66.2 °F 66.2 °F 100% 29.97 in 3.0 mi NNE 10.4 mph - 0.18 in Rain Rain
2:34 AM 66.2 °F 66.2 °F 100% 29.97 in 3.0 mi NNE 9.2 mph - 0.22 in Rain Rain
2:42 AM 66.2 °F 66.2 °F 100% 29.97 in 4.0 mi North 4.6 mph - 0.24 in Rain Light Rain
2:53 AM 66.0 °F 66.0 °F 100% 29.98 in 2.5 mi North 6.9 mph - 0.32 in Rain Heavy Rain
3:01 AM 66.2 °F 66.2 °F 100% 29.97 in 3.0 mi North 8.1 mph - 0.05 in Rain Heavy Rain
3:49 AM 66.2 °F 66.2 °F 100% 29.97 in 10.0 mi NNE 3.5 mph - 0.10 in Rain Light Rain
3:53 AM 66.9 °F 66.0 °F 97% 29.97 in 9.0 mi NE 8.1 mph - 0.10 in Rain Light Rain
4:44 AM 66.2 °F 66.2 °F 100% 29.96 in 6.0 mi NE 6.9 mph - 0.01 in Rain Light Rain
4:46 AM 66.2 °F 66.2 °F 100% 29.96 in 6.0 mi NE 8.1 mph - 0.01 in Rain Light Rain
4:53 AM 66.9 °F 66.9 °F 100% 29.97 in 7.0 mi NE 8.1 mph - 0.02 in Rain Light Rain
5:03 AM 66.2 °F 66.2 °F 100% 29.97 in 7.0 mi NNE 9.2 mph - 0.00 in Rain Light Rain
5:09 AM 66.2 °F 66.2 °F 100% 29.97 in 9.0 mi NNE 10.4 mph - 0.00 in Rain Light Rain
5:45 AM 66.2 °F 66.2 °F 100% 29.99 in 2.5 mi North 4.6 mph - 0.10 in Rain Rain
5:53 AM 66.9 °F 66.9 °F 100% 29.99 in 3.0 mi NNE 4.6 mph - 0.12 in Rain Rain
6:29 AM 66.2 °F 66.2 °F 100% 29.99 in 8.0 mi NE 6.9 mph - 0.02 in Rain Light Rain
6:48 AM 66.2 °F 66.2 °F 100% 29.99 in 10.0 mi NNE 6.9 mph - 0.02 in   Overcast
6:53 AM 66.9 °F 66.9 °F 100% 30.00 in 10.0 mi NNE 10.4 mph - 0.02 in   Overcast
7:26 AM 66.2 °F 66.2 °F 100% 30.00 in 10.0 mi NNE 9.2 mph - 0.00 in   Overcast
7:53 AM 68.0 °F 66.9 °F 96% 30.01 in 10.0 mi NNE 5.8 mph - 0.00 in   Overcast
8:28 AM 69.8 °F 66.2 °F 88% 30.01 in 10.0 mi ENE 10.4 mph - N/A   Overcast
8:53 AM 70.0 °F 66.0 °F 87% 30.02 in 10.0 mi ENE 11.5 mph - N/A   Mostly Cloudy
9:53 AM 71.1 °F 66.9 °F 87% 30.01 in 10.0 mi ENE 8.1 mph - 0.00 in   Mostly Cloudy
10:53 AM 72.0 °F 66.0 °F 81% 30.03 in 10.0 mi NE 6.9 mph - N/A   Mostly Cloudy
11:53 AM 72.0 °F 66.9 °F 84% 30.02 in 10.0 mi NNE 10.4 mph - 0.00 in Rain Light Rain
12:51 PM 69.8 °F 66.2 °F 88% 30.00 in 1.8 mi North 6.9 mph - 0.09 in Rain Heavy Rain
12:53 PM 69.1 °F 66.9 °F 93% 30.00 in 7.0 mi North 6.9 mph - 0.10 in Rain Heavy Rain
2:00 PM 66.2 °F 66.2 °F 100% 29.98 in 5.0 mi NW 9.2 mph - 0.00 in Rain Light Rain
2:32 PM 68.0 °F 66.2 °F 94% 29.97 in 7.0 mi NW 10.4 mph - 0.02 in Rain Light Rain
2:53 PM 66.9 °F 66.9 °F 100% 29.98 in 10.0 mi WNW 6.9 mph - 0.03 in Rain Light Rain
3:53 PM 66.9 °F 66.0 °F 97% 29.97 in 7.0 mi NNW 4.6 mph - 0.04 in Rain Light Rain
4:53 PM 66.0 °F 66.0 °F 100% 29.98 in 10.0 mi North 4.6 mph - 0.03 in Rain Light Rain
5:53 PM 66.0 °F 66.0 °F 100% 29.98 in 4.0 mi North 4.6 mph - 0.04 in Rain Light Rain
6:53 PM 64.9 °F 64.9 °F 100% 29.96 in 8.0 mi Calm Calm - 0.01 in Rain Light Rain
7:53 PM 64.9 °F 64.9 °F 100% 29.97 in 9.0 mi Calm Calm - 0.02 in Rain Light Rain
8:07 PM 64.4 °F 64.4 °F 100% 29.97 in 7.0 mi Calm Calm - 0.00 in Rain Light Rain
8:53 PM 64.9 °F 64.9 °F 100% 29.98 in 8.0 mi Calm Calm - 0.01 in Rain Light Rain
9:50 PM 66.2 °F 66.2 °F 100% 29.97 in 7.0 mi Calm Calm - 0.01 in   Overcast
9:53 PM 66.0 °F 66.0 °F 100% 29.97 in 7.0 mi Calm Calm - 0.01 in   Mostly Cloudy
10:15 PM 64.4 °F 64.4 °F 100% 29.97 in 8.0 mi NW 4.6 mph - N/A   Mostly Cloudy
10:53 PM 64.9 °F 64.9 °F 100% 29.97 in 9.0 mi Calm Calm - N/A   Scattered Clouds
11:53 PM 64.9 °F 64.9 °F 100% 29.96 in 6.0 mi Calm Calm - N/A   Mostly Cloudy